User: anonymous   Login
Location: Montr�al
(45.5000°N, 73.5830°W)
Time: 04:50:12
(UTC-04:00)
Language:

Cosmos 1470 Rocket - Orbit

View from above orbital plane
View from above orbital plane
View from above satellite
View from above satellite

Ground track
Ground track

The orbit data is extracted from the following two-line orbital elements,

1 14148U 83061B   17174.82309486 +.00000081 +00000-0 +69892-5 0  9994
2 14148 082.5197 263.3647 0020427 313.9448 185.7549 14.83230867835827
Epoch (UTC): 23 June 2017 19:45:15
Eccentricity: 0.0020427
inclination: 82.5197°
perigee height: 605 km
apogee height: 633 km
right ascension of ascending node: 263.3647°
argument of perigee: 313.9448°
revolutions per day: 14.83230867
mean anomaly at epoch: 185.7549°
orbit number at epoch: 83582

The dashed part of the orbit path shows where the satellite is in the earth's shadow,  

DLR